Weather History for Ottumwa, IA

Change the Weather History Date:

Wednesday, April 16, 2014

  Actual Average Record
Temperature  
Mean Temperature 50 °F 51 °F  
Max Temperature 62 °F 63 °F 88 °F (2004)
Min Temperature 37 °F 40 °F 24 °F (1961)
Degree Days  
Heating Degree Days 15 14  
Month to date heating degree days 298 271  
Since 1 July heating degree days 6789 5967  
Cooling Degree Days 0 0  
Month to date cooling degree days 5 0  
Year to date cooling degree days 5 1  
Moisture  
Dew Point 28 °F    
Average Humidity 44    
Maximum Humidity 59    
Minimum Humidity 29    
Precipitation  
Precipitation 0.00 in 0.12 in 1.35 in (1945)
Month to date precipitation 1.49 1.61  
Year to date precipitation 3.35 6.03  
Sea Level Pressure  
Sea Level Pressure 29.96 in    
Wind  
Wind Speed 21 mph (SSE)    
Max Wind Speed 38 mph    
Max Gust Speed 47 mph    
Visibility 10 miles    
Events      
T = Trace of Precipitation, MM = Missing Value Source: NWS Daily Summary

Daily Weather History Graph

Daily Weather History Graph

Search for Another Location

Airport:

Trip Planner

Search our weather history database for the weather conditions in past years. The results will help you decide how hot, cold, wet, or windy it might be!

Date:

Astronomy

Apr. 16, 2014 Rise Set
Actual Time 6:28 AM CDT 7:50 PM CDT
Civil Twilight 6:00 AM CDT 8:19 PM CDT
Nautical Twilight 5:25 AM CDT 8:54 PM CDT
Astronomical Twilight 4:49 AM CDT 9:30 PM CDT
Moon 9:35 PM CDT (4/16) 7:16 AM CDT (4/16)
Length of Visible Light 14h 19m
Length of Day
13h 21m
Full, 98% of the Moon is Illuminated
Apr 16
Full
Apr 22
Last Quarter
Apr 29
New
May 6
First Quarter
May 14
Full

Hourly Weather History & Observations

Time (CDT) Temp. Windchill Dew Point Humidity Pressure Visibility Wind Dir Wind Speed Gust Speed Precip Events Conditions
12:53 AM 37.9 °F 29.6 °F 23.0 °F 55% 30.07 in 10.0 mi SSE 13.8 mph - N/A   Clear
1:53 AM 37.9 °F 29.6 °F 23.0 °F 55% 30.06 in 10.0 mi SSE 13.8 mph - N/A   Clear
2:53 AM 37.9 °F 28.2 °F 24.1 °F 57% 30.03 in 10.0 mi SSE 18.4 mph 27.6 mph N/A   Clear
3:53 AM 37.9 °F 28.5 °F 25.0 °F 60% 30.03 in 10.0 mi SSE 17.3 mph 25.3 mph N/A   Partly Cloudy
4:53 AM 37.0 °F 27.4 °F 24.1 °F 59% 30.02 in 10.0 mi SSE 17.3 mph - N/A   Clear
5:53 AM 37.0 °F 28.1 °F 24.1 °F 59% 30.01 in 10.0 mi SSE 15.0 mph - N/A   Clear
6:53 AM 37.0 °F 28.1 °F 24.1 °F 59% 30.02 in 10.0 mi SSE 15.0 mph - N/A   Clear
7:53 AM 39.9 °F 31.1 °F 25.0 °F 55% 30.03 in 10.0 mi SSE 17.3 mph - N/A   Clear
8:53 AM 45.0 °F 37.1 °F 27.0 °F 49% 30.02 in 10.0 mi South 19.6 mph - N/A   Clear
9:53 AM 48.0 °F - 28.9 °F 48% 30.00 in 10.0 mi South 20.7 mph 28.8 mph N/A   Clear
10:53 AM 52.0 °F - 30.0 °F 43% 30.00 in 10.0 mi South 20.7 mph 29.9 mph N/A   Clear
11:53 AM 55.9 °F - 30.9 °F 39% 29.98 in 10.0 mi South 25.3 mph 35.7 mph N/A   Clear
12:53 PM 60.8 °F - 32.0 °F 34% 29.93 in 10.0 mi South 26.5 mph 43.7 mph N/A   Clear
1:53 PM 60.1 °F - 30.9 °F 33% 29.93 in 10.0 mi South 32.2 mph 43.7 mph N/A   Clear
2:53 PM 61.0 °F - 30.9 °F 32% 29.89 in 10.0 mi SSE 29.9 mph 40.3 mph N/A   Clear
3:53 PM 60.1 °F - 30.0 °F 32% 29.87 in 10.0 mi South 25.3 mph 39.1 mph N/A   Clear
4:53 PM 61.0 °F - 28.9 °F 30% 29.86 in 10.0 mi South 29.9 mph 40.3 mph N/A   Clear
5:53 PM 59.0 °F - 28.9 °F 32% 29.88 in 10.0 mi South 23.0 mph 33.4 mph N/A   Mostly Cloudy
6:53 PM 57.9 °F - 30.0 °F 35% 29.88 in 10.0 mi South 18.4 mph 26.5 mph N/A   Overcast
7:53 PM 57.0 °F - 30.0 °F 36% 29.88 in 10.0 mi South 17.3 mph 28.8 mph N/A   Partly Cloudy
8:53 PM 54.0 °F - 30.0 °F 40% 29.89 in 10.0 mi SSE 17.3 mph - N/A   Clear
9:53 PM 53.1 °F - 28.9 °F 40% 29.91 in 10.0 mi South 18.4 mph 27.6 mph N/A   Scattered Clouds
10:53 PM 52.0 °F - 30.0 °F 43% 29.92 in 10.0 mi South 21.9 mph - N/A   Mostly Cloudy
11:53 PM 52.0 °F - 30.0 °F 43% 29.92 in 10.0 mi South 18.4 mph - N/A   Mostly Cloudy